sat.trackr.live / text

‹ back to catalog

ICEYE-X76

NORAD 68502 · 2026-067CQ

PAYLOAD ACTIVE UNKNOWN

§ Identity

Operator
Country
POL
Launch date
2026-03-30
Launch site
AFWTR
Launch vehicle
Mass (kg)
RCS (m²)

External: N2YO · Heavens-Above · Gunter

§ Orbital elements

Epoch: 2026-09-20T04:03:50.908608Z

Period
96.52 min
Inclination
97.7733°
Eccentricity
0.0003504
Mean motion
14.91860219 rev/d
Perigee alt
589.7 km
Apogee alt
594.6 km
Semi-major
6,970.3 km
B*
8.8197e-5
RAAN
220.0403°
Arg perigee
69.2394°
Mean anomaly
290.9199°
Rev number
2,588

§ Raw data

ICEYE-X761 68502U 26067CQ  26263.16933922  .00000835  00000+0  88197-4 0  99982 68502  97.7733 220.0403 0003504  69.2394 290.9199 14.91860219 25888

JSON: /api/v1/satellites/68502 · /tle

For live sub-satellite position, see the globe view (requires WebGL).

§ Visibility from observer

Set your observer location to see the next 7 days of passes ≥ 10°. The values pass through the URL so the page stays shareable.

No JS? Fill the form by hand. The geolocation button needs JavaScript.